CW3375 Ferndale WA US current weather conditions

sailwx.info

Wind from 159 at 4 knots gusting 11

Air temperature 5.6° C
Dewpoint 4.4° C

Last reported at 2019-Dec-13 12:04 UTC.
Time now 2019-Dec-13 13:13 UTC

Location: N 48°52' W 122°36'.
View on Google Maps.

See reports from other nearby stations

  
Tides and Currents Weather Stations Pressure Air Temp Water Temp Dewpoint Dewpoint Depression Visibility Wind Speed Wind Dir Waves Ship Positions
date/time (UTC)wind fromknots sea level pressurealtimeterstation pressurevisibilityair tempwater tempwave heightnotes
2019-Dec-13 12:04 159 4 gusting 11 5.6
2019-Dec-13 11:57 148 6 gusting 17 5.6
2019-Dec-13 11:50 178 6 gusting 10 5.6
2019-Dec-13 11:43 183 5 gusting 10 5.6
2019-Dec-13 11:36 183 3 gusting 8 5.6
2019-Dec-13 11:29 204 3 gusting 8 5.6
2019-Dec-13 11:22 224 2 gusting 4 5.6
2019-Dec-13 11:15 199 2 gusting 6 5.6
2019-Dec-13 11:08 253 1 gusting 6 5.6
2019-Dec-13 11:01 238 2 gusting 6 5.6
2019-Dec-13 10:54 203 3 gusting 11 5.6
2019-Dec-13 10:47 180 4 gusting 7 5.6
2019-Dec-13 10:40 183 3 gusting 9 5.6
2019-Dec-13 10:33 171 5 gusting 7 5.6
2019-Dec-13 10:26 173 5 gusting 7 5.6
2019-Dec-13 10:19 184 4 gusting 9 5.6
2019-Dec-13 10:12 197 4 gusting 9 5.6
2019-Dec-13 10:05 204 5 gusting 9 5.6
2019-Dec-13 09:58 203 5 gusting 10 5.6
2019-Dec-13 09:51 192 6 gusting 9 5.6
2019-Dec-13 09:44 197 5 gusting 9 5.6
2019-Dec-13 09:37 199 5 gusting 9 5.6
2019-Dec-13 09:30 186 5 gusting 10 5.6
2019-Dec-13 09:23 197 5 gusting 10 5.6
2019-Dec-13 09:16 210 5 gusting 8 5.6
2019-Dec-13 09:09 202 3 gusting 9 5.6
2019-Dec-13 09:02 197 3 gusting 10 5.6
2019-Dec-13 08:55 231 4 gusting 6 5.6
2019-Dec-13 08:48 207 3 gusting 10 5.6
2019-Dec-13 08:41 205 5 gusting 10 5.6
2019-Dec-13 08:34 197 3 gusting 9 5.6
2019-Dec-13 08:27 209 5 gusting 9 5.6
2019-Dec-13 08:20 216 3 gusting 7 5.6
2019-Dec-13 08:13 223 3 gusting 9 5.6
2019-Dec-13 08:06 188 4 gusting 9 5.6
2019-Dec-13 07:59 196 1 gusting 5 5.6
2019-Dec-13 07:52 177 1 gusting 9 5.6
2019-Dec-13 07:45 183 4 gusting 6 5.6
2019-Dec-13 07:38 236 3 gusting 6 5.6
2019-Dec-13 07:31 206 4 gusting 14 5.6
2019-Dec-13 07:24 164 6 gusting 14 5.6
2019-Dec-13 07:17 185 4 gusting 13 5.6
2019-Dec-13 07:10 195 5 gusting 12 5.6
2019-Dec-13 07:03 206 6 gusting 13 5.6
2019-Dec-13 06:56 176 6 gusting 13 6.1
2019-Dec-13 06:49 173 6 gusting 14 6.1
2019-Dec-13 06:42 164 6 gusting 17 5.6
2019-Dec-13 06:35 172 5 gusting 13 6.1
2019-Dec-13 06:28 167 6 gusting 19 6.1
2019-Dec-13 06:21 179 7 gusting 19 6.1
2019-Dec-13 06:14 188 8 gusting 16 6.1
2019-Dec-13 06:07 194 6 gusting 10 6.1
2019-Dec-13 06:00 189 4 gusting 11 6.1
2019-Dec-13 05:53 171 5 gusting 14 6.1
2019-Dec-13 05:46 175 8 gusting 17 5.6
2019-Dec-13 05:39 173 8 gusting 13 5.6
2019-Dec-13 05:32 178 6 gusting 14 5.6
2019-Dec-13 05:25 190 5 gusting 14 5.6
2019-Dec-13 05:18 175 6 gusting 14 5.6
2019-Dec-13 05:11 187 5 gusting 12 5.6
2019-Dec-13 05:04 194 5 gusting 10 5.6
2019-Dec-13 04:57 173 6 gusting 11 5.6
2019-Dec-13 04:50 168 6 gusting 11 5.6
2019-Dec-13 04:43 172 5 gusting 13 6.1
2019-Dec-13 04:36 162 7 gusting 15 6.1
2019-Dec-13 04:29 170 5 gusting 14 6.1
2019-Dec-13 04:22 169 4 gusting 16 6.1
2019-Dec-13 04:15 170 6 gusting 16 6.1
2019-Dec-13 04:08 164 6 gusting 13 6.1
2019-Dec-13 04:01 160 6 gusting 13 6.1
2019-Dec-13 03:54 184 7 gusting 13 6.1
2019-Dec-13 03:47 187 3 gusting 10 5.6
2019-Dec-13 03:40 196 3 gusting 9 5.6
2019-Dec-13 03:33 212 3 gusting 6 5.6
2019-Dec-13 03:26 225 2 gusting 6 5.6
2019-Dec-13 03:19 221 4 gusting 6 5.6
2019-Dec-13 03:12 211 1 gusting 6 5.6
2019-Dec-13 03:05 207 2 gusting 6 5.6
2019-Dec-13 02:58 197 2 gusting 6 5.6
2019-Dec-13 02:51 191 3 gusting 6 5.0
2019-Dec-13 02:44 192 2 gusting 8 5.0
2019-Dec-13 02:37 190 2 gusting 6 5.0
2019-Dec-13 02:30 165 0 gusting 2 5.6
2019-Dec-13 02:23 178 0 gusting 6 5.6
2019-Dec-13 02:16 186 0 gusting 5 5.6
2019-Dec-13 02:09 187 1 gusting 3 5.6
2019-Dec-13 02:02 172 1 gusting 3 5.6
2019-Dec-13 01:55 162 0 gusting 3 5.6
2019-Dec-13 01:48 172 1 gusting 2 5.6
2019-Dec-13 01:41 5.6
2019-Dec-13 01:34 087 0 gusting 5 5.6
2019-Dec-13 01:27 129 3 gusting 5 5.6
2019-Dec-13 01:20 151 5.6
2019-Dec-13 01:13 116 1 gusting 2 5.6
2019-Dec-13 01:06 5.6
2019-Dec-13 00:59 5.6
2019-Dec-13 00:52 5.6
2019-Dec-13 00:45 6.1
2019-Dec-13 00:38 186 0 gusting 4 6.1
2019-Dec-13 00:31 231 1 gusting 5 6.1
2019-Dec-13 00:24 208 2 gusting 6 6.1
2019-Dec-13 00:17 179 2 gusting 5 6.1
2019-Dec-13 00:10 178 1 gusting 4 6.1
2019-Dec-13 00:03 141 2 gusting 4 6.1
2019-Dec-12 23:56 140 6.1
2019-Dec-12 23:49 120 2 gusting 5 6.1
2019-Dec-12 23:42 019 6.1
2019-Dec-12 23:35 330 2 gusting 6 6.1
2019-Dec-12 23:28 319 2 gusting 7 6.1
2019-Dec-12 23:21 322 4 gusting 6 6.1
2019-Dec-12 23:14 302 5 gusting 6 6.1
2019-Dec-12 23:07 320 5 gusting 10 6.7
2019-Dec-12 23:00 300 6 gusting 10 6.7
2019-Dec-12 22:53 246 5 gusting 19 7.2
2019-Dec-12 22:46 240 8 gusting 19 7.2
2019-Dec-12 22:39 225 3 gusting 10 7.2
2019-Dec-12 22:32 227 6 gusting 10 7.2
2019-Dec-12 22:25 210 4 gusting 13 7.2
2019-Dec-12 22:18 189 6 gusting 13 7.8
2019-Dec-12 22:11 186 6 gusting 18 7.8
2019-Dec-12 22:04 163 7 gusting 20 7.8
2019-Dec-12 21:57 165 12 gusting 20 8.3
2019-Dec-12 21:50 146 10 gusting 19 8.3
2019-Dec-12 21:43 165 9 gusting 19 8.3
2019-Dec-12 21:36 150 7 gusting 17 8.3
2019-Dec-12 21:29 148 9 gusting 16 8.9
2019-Dec-12 21:22 163 7 gusting 19 8.9
2019-Dec-12 21:15 157 11 gusting 23 8.9
2019-Dec-12 21:08 134 13 gusting 26 8.9
2019-Dec-12 21:01 143 11 gusting 25 8.9
2019-Dec-12 20:54 141 10 gusting 23 8.9
2019-Dec-12 20:47 135 16 gusting 23 8.9
2019-Dec-12 20:40 144 8 gusting 13 8.9
2019-Dec-12 20:33 139 5 gusting 16 8.9
2019-Dec-12 20:26 141 7 gusting 16 8.9
2019-Dec-12 20:19 151 7 gusting 16 8.9
2019-Dec-12 20:12 160 7 gusting 16 8.9
2019-Dec-12 20:05 168 7 gusting 24 8.9
2019-Dec-12 19:58 149 9 gusting 18 8.9
2019-Dec-12 19:51 140 10 gusting 19 8.9
2019-Dec-12 19:44 145 10 gusting 21 8.3
2019-Dec-12 19:37 135 13 gusting 20 8.3
2019-Dec-12 19:30 137 10 gusting 19 7.8
2019-Dec-12 19:23 138 12 gusting 19 7.8
2019-Dec-12 19:16 137 11 gusting 18 7.8
2019-Dec-12 19:09 142 7 gusting 18 7.8
2019-Dec-12 19:02 162 7 gusting 25 7.8
2019-Dec-12 18:55 137 13 gusting 25 7.8
2019-Dec-12 18:48 138 14 gusting 25 7.8
2019-Dec-12 18:41 150 9 gusting 17 7.8
2019-Dec-12 18:34 156 9 gusting 17 7.8
2019-Dec-12 18:27 169 7 gusting 15 7.8
2019-Dec-12 18:20 177 5 gusting 13 7.8
2019-Dec-12 18:13 182 6 gusting 13 7.8
2019-Dec-12 18:06 170 7 gusting 12 7.8
2019-Dec-12 17:59 186 5 gusting 12 7.8
2019-Dec-12 17:52 179 6 gusting 20 7.8
2019-Dec-12 17:45 166 6 gusting 20 7.8
2019-Dec-12 17:38 164 10 gusting 19 7.8
2019-Dec-12 17:31 147 10 gusting 17 7.8
2019-Dec-12 17:24 143 9 gusting 14 7.8
2019-Dec-12 17:17 148 6 gusting 11 7.2
2019-Dec-12 17:10 175 5 gusting 11 7.2
2019-Dec-12 17:03 205 3 gusting 7 7.2
2019-Dec-12 16:56 210 3 gusting 9 7.2
2019-Dec-12 16:49 225 6 gusting 13 7.8
2019-Dec-12 16:42 227 5 gusting 12 7.8
2019-Dec-12 16:35 178 3 gusting 10 7.8
2019-Dec-12 16:28 159 5 gusting 17 7.8
2019-Dec-12 16:21 166 9 gusting 17 7.8
2019-Dec-12 16:14 151 6 gusting 18 7.8
2019-Dec-12 16:07 160 9 gusting 20 7.8
2019-Dec-12 16:00 153 8 gusting 20 7.8
2019-Dec-12 15:53 160 8 gusting 18 8.3
2019-Dec-12 15:46 163 10 gusting 17 8.3
2019-Dec-12 15:39 140 9 gusting 22 8.3
2019-Dec-12 15:32 143 11 gusting 20 8.3
2019-Dec-12 15:25 132 13 gusting 19 8.3
2019-Dec-12 15:18 146 8 gusting 22 8.3
2019-Dec-12 15:11 150 10 gusting 22 7.8
2019-Dec-12 15:04 143 8 gusting 18 7.8
2019-Dec-12 14:57 139 8 gusting 19 7.8
2019-Dec-12 14:50 134 11 gusting 19 7.8
2019-Dec-12 14:43 160 10 gusting 19 7.8
2019-Dec-12 14:36 167 11 gusting 19 7.8
2019-Dec-12 14:29 162 8 gusting 24 7.8
2019-Dec-12 14:22 162 8 gusting 20 7.8
2019-Dec-12 14:15 155 10 gusting 20 7.8
2019-Dec-12 14:08 169 8 gusting 17 7.8
2019-Dec-12 14:01 142 10 gusting 21 7.8
2019-Dec-12 13:54 156 8 gusting 21 7.8
2019-Dec-12 13:47 136 9 gusting 17 7.8
2019-Dec-12 13:40 140 10 gusting 18 7.8
2019-Dec-12 13:33 164 7 gusting 19 7.8
2019-Dec-12 13:26 158 8 gusting 13 7.8
2019-Dec-12 13:19 152 7 gusting 12 7.8
2019-Dec-12 13:12 161 7 gusting 14 7.8
2019-Dec-12 13:05 175 6 gusting 14 7.8
2019-Dec-12 12:58 185 7 gusting 14 7.8
2019-Dec-12 12:51 166 6 gusting 15 7.8
2019-Dec-12 12:44 184 6 gusting 14 7.8
2019-Dec-12 12:37 174 9 gusting 17 7.8
2019-Dec-12 12:30 166 6 gusting 17 7.8
2019-Dec-12 12:23 164 6 gusting 17 7.8
2019-Dec-12 12:16 157 8 gusting 17 7.8
2019-Dec-12 12:09 163 7 gusting 19 7.8
2019-Dec-12 12:02 161 7 gusting 13 7.8
2019-Dec-12 11:55 160 6 gusting 11 7.8
2019-Dec-12 11:48 151 6 gusting 11 7.8
2019-Dec-12 11:41 183 4 gusting 11 7.8
2019-Dec-12 11:34 156 6 gusting 13 7.2
2019-Dec-12 11:27 169 5 gusting 16 7.2
2019-Dec-12 11:20 160 6 gusting 17 7.2
2019-Dec-12 11:13 147 6 gusting 14 7.2
2019-Dec-12 11:06 198 5 gusting 20 7.2
2019-Dec-12 10:59 160 5 gusting 20 7.2
2019-Dec-12 10:52 162 8 gusting 19 7.2
2019-Dec-12 10:45 161 10 gusting 18 7.2
2019-Dec-12 10:38 154 7 gusting 20 7.2
2019-Dec-12 10:31 155 9 gusting 19 7.2
2019-Dec-12 10:24 160 9 gusting 19 7.2
2019-Dec-12 10:17 171 9 gusting 21 7.2
2019-Dec-12 10:10 158 7 gusting 21 7.2
2019-Dec-12 10:03 164 10 gusting 18 7.2
2019-Dec-12 09:56 137 11 gusting 21 7.2
2019-Dec-12 09:49 147 11 gusting 21 7.2
2019-Dec-12 09:42 155 10 gusting 19 7.2
2019-Dec-12 09:35 151 9 gusting 20 7.2
2019-Dec-12 09:28 141 11 gusting 19 7.2
2019-Dec-12 09:21 147 10 gusting 24 7.2
2019-Dec-12 09:14 154 10 gusting 19 7.2
2019-Dec-12 09:07 158 11 gusting 25 7.2
2019-Dec-12 09:00 161 10 gusting 20 7.8
2019-Dec-12 08:53 166 9 gusting 20 7.8
2019-Dec-12 08:46 163 10 gusting 24 7.8
2019-Dec-12 08:39 158 10 gusting 21 7.8
2019-Dec-12 08:32 161 8 gusting 20 7.8
2019-Dec-12 08:25 147 13 gusting 24 8.3
2019-Dec-12 08:18 148 11 gusting 20 8.3
2019-Dec-12 08:11 160 7 gusting 20 8.9
2019-Dec-12 08:04 168 9 gusting 20 8.9
2019-Dec-12 07:57 187 10 gusting 28 9.4
2019-Dec-12 07:50 151 6 gusting 13 8.9
2019-Dec-12 07:43 150 7 gusting 16 8.9
2019-Dec-12 07:36 139 5 gusting 19 8.9
2019-Dec-12 07:29 132 9 gusting 24 8.9
2019-Dec-12 07:22 140 8 gusting 18 8.9
2019-Dec-12 07:10 138 8 gusting 26 8.3
2019-Dec-12 07:03 130 11 gusting 14 8.3
2019-Dec-12 06:48 130 13 gusting 25 8.3
2019-Dec-12 06:41 132 14 gusting 23 8.3
2019-Dec-12 06:34 129 10 gusting 22 7.8
2019-Dec-12 06:27 119 10 gusting 17 7.8
2019-Dec-12 06:20 110 8 gusting 20 7.8
2019-Dec-12 06:13 117 8 gusting 19 7.2
2019-Dec-12 06:06 108 7 gusting 19 7.2
2019-Dec-12 05:59 107 10 gusting 23 7.2
2019-Dec-12 05:52 111 7 gusting 16 7.2
2019-Dec-12 05:45 106 9 gusting 17 7.2
2019-Dec-12 05:38 115 8 gusting 25 7.8
2019-Dec-12 05:31 120 14 gusting 25 7.2
2019-Dec-12 05:24 094 4 gusting 10 7.2
2019-Dec-12 05:17 116 5 gusting 11 7.2
2019-Dec-12 05:10 095 5 gusting 11 6.7
2019-Dec-12 05:03 104 6 gusting 8 6.7
2019-Dec-12 04:56 079 3 gusting 8 6.7
2019-Dec-12 04:49 092 5 gusting 9 6.7
2019-Dec-12 04:42 099 5 gusting 12 7.2
2019-Dec-12 04:35 111 6 gusting 20 7.2
2019-Dec-12 04:28 115 8 gusting 17 7.2
2019-Dec-12 04:21 109 7 gusting 17 7.2
2019-Dec-12 04:14 108 8 gusting 22 7.2
2019-Dec-12 04:07 115 12 gusting 19 7.2
2019-Dec-12 04:00 122 12 gusting 19 7.2
2019-Dec-12 03:53 119 9 gusting 13 7.2
2019-Dec-12 03:46 107 8 gusting 19 7.2
2019-Dec-12 03:39 111 8 gusting 19 7.2
2019-Dec-12 03:32 118 11 gusting 17 7.2
2019-Dec-12 03:25 121 12 gusting 26 7.2
2019-Dec-12 03:18 123 12 gusting 22 7.2
2019-Dec-12 03:11 123 13 gusting 20 7.2
2019-Dec-12 03:04 118 7 gusting 17 7.2
2019-Dec-12 02:57 110 7 gusting 13 7.2
2019-Dec-12 02:50 113 7 gusting 13 7.2
2019-Dec-12 02:43 102 5 gusting 19 7.2
2019-Dec-12 02:36 131 11 gusting 19 7.8
2019-Dec-12 02:29 129 12 gusting 19 7.8
2019-Dec-12 02:22 132 9 gusting 21 7.8
2019-Dec-12 02:15 128 13 gusting 21 7.8
2019-Dec-12 02:08 130 11 gusting 21 7.8
2019-Dec-12 02:01 130 6 gusting 13 7.8
2019-Dec-12 01:54 131 6 gusting 15 7.8
2019-Dec-12 01:47 134 7 gusting 15 7.8
2019-Dec-12 01:40 132 10 gusting 21 7.8
2019-Dec-12 01:33 135 13 gusting 21 7.8
2019-Dec-12 01:26 134 13 gusting 19 8.3
2019-Dec-12 01:19 133 8 gusting 18 7.8
2019-Dec-12 01:12 126 8 gusting 15 7.8
2019-Dec-12 01:05 039 4 gusting 18 8.3
2019-Dec-12 00:58 124 11 gusting 21 8.3
2019-Dec-12 00:51 125 10 gusting 17 8.3
2019-Dec-12 00:44 130 10 gusting 17 8.3
2019-Dec-12 00:37 135 8 gusting 16 8.3
2019-Dec-12 00:30 123 8 gusting 25 8.3
2019-Dec-12 00:23 129 12 gusting 25 7.8
2019-Dec-12 00:16 154 8 gusting 19 6.7
2019-Dec-12 00:09 327 0 gusting 6 6.1
2019-Dec-12 00:02 327 2 gusting 5 5.6
2019-Dec-11 23:55 341 2 gusting 6 5.6
2019-Dec-11 23:48 345 2 gusting 6 5.6
2019-Dec-11 23:41 355 3 gusting 5 5.6
2019-Dec-11 23:34 004 2 gusting 6 5.6
2019-Dec-11 23:27 356 4 gusting 6 5.6
2019-Dec-11 23:20 355 4 gusting 6 5.6
2019-Dec-11 23:13 359 3 gusting 6 5.6
2019-Dec-11 23:06 004 3 gusting 4 6.1
2019-Dec-11 22:59 001 1 gusting 4 6.1
2019-Dec-11 22:52 007 3 gusting 5 5.6
2019-Dec-11 22:45 017 1 gusting 6 5.6
2019-Dec-11 22:38 013 3 gusting 6 5.6
2019-Dec-11 22:31 015 4 gusting 9 5.6
2019-Dec-11 22:24 014 5 gusting 9 5.6
2019-Dec-11 22:17 357 3 gusting 9 5.6
2019-Dec-11 22:10 009 6 gusting 9 5.6
2019-Dec-11 22:03 007 3 gusting 8 5.6
2019-Dec-11 21:56 011 6 gusting 7 5.6
2019-Dec-11 21:49 021 3 gusting 6 5.6
2019-Dec-11 21:42 098 2 gusting 8 5.6
2019-Dec-11 21:35 023 3 gusting 8 5.6
2019-Dec-11 21:28 039 3 gusting 6 5.6
2019-Dec-11 21:21 023 3 gusting 6 5.6
2019-Dec-11 21:14 023 3 gusting 9 5.6
2019-Dec-11 21:07 035 5 gusting 9 5.6
2019-Dec-11 21:00 012 3 gusting 9 5.6
2019-Dec-11 20:53 017 6 gusting 9 5.6
2019-Dec-11 20:46 021 6 gusting 9 5.6
2019-Dec-11 20:39 017 6 gusting 9 5.6
2019-Dec-11 20:32 014 6 gusting 10 5.6
2019-Dec-11 20:25 006 3 gusting 9 5.6
2019-Dec-11 20:18 012 6 gusting 10 5.6
2019-Dec-11 20:11 008 5 gusting 10 5.6
2019-Dec-11 20:04 017 3 gusting 9 5.6
2019-Dec-11 19:57 005 6 gusting 9 5.6
2019-Dec-11 19:50 008 5 gusting 8 5.6
2019-Dec-11 19:43 008 3 gusting 10 5.6
2019-Dec-11 19:36 005 6 gusting 9 5.6
2019-Dec-11 19:29 015 5 gusting 10 5.6
2019-Dec-11 19:22 010 6 gusting 9 5.6
2019-Dec-11 19:15 015 4 gusting 8 5.0
2019-Dec-11 19:08 013 5 gusting 9 5.0
2019-Dec-11 19:01 014 6 gusting 9 5.0
2019-Dec-11 18:54 017 4 gusting 8 5.0
2019-Dec-11 18:47 002 5 gusting 8 5.0
2019-Dec-11 18:40 348 4 gusting 6 5.0
2019-Dec-11 18:33 350 3 gusting 6 4.4
2019-Dec-11 18:26 354 3 gusting 9 4.4
2019-Dec-11 18:19 022 4 gusting 9 4.4
2019-Dec-11 18:12 014 4 gusting 8 4.4
2019-Dec-11 18:05 013 4 gusting 9 4.4
2019-Dec-11 17:58 019 5 gusting 9 3.9
2019-Dec-11 17:51 025 4 gusting 8 3.9
2019-Dec-11 17:44 039 2 gusting 6 3.9
2019-Dec-11 17:37 018 2 gusting 6 3.9
2019-Dec-11 17:30 038 2 gusting 8 3.9
2019-Dec-11 17:23 024 4 gusting 8 3.9
2019-Dec-11 17:16 008 4 gusting 6 3.9
2019-Dec-11 17:09 015 4 gusting 6 3.9
2019-Dec-11 17:02 010 3 gusting 7 3.9
2019-Dec-11 16:55 016 4 gusting 6 3.9
2019-Dec-11 16:48 001 5 gusting 6 3.9
2019-Dec-11 16:41 351 4 gusting 7 3.9
2019-Dec-11 16:34 016 3 gusting 9 3.9
2019-Dec-11 16:27 006 6 gusting 9 3.9
2019-Dec-11 16:20 003 3 gusting 6 3.9
2019-Dec-11 16:13 005 2 gusting 6 3.9
2019-Dec-11 16:06 014 4 gusting 6 3.9
2019-Dec-11 15:59 008 3 gusting 7 3.3
2019-Dec-11 15:52 005 5 gusting 7 3.3
2019-Dec-11 15:45 015 3 gusting 6 3.3
2019-Dec-11 15:38 016 3 gusting 6 3.3
2019-Dec-11 15:31 008 2 gusting 4 3.9
2019-Dec-11 15:24 036 1 gusting 5 3.3
2019-Dec-11 15:17 351 2 gusting 5 3.3
2019-Dec-11 15:10 022 2 gusting 5 3.3
2019-Dec-11 15:03 004 1 gusting 4 3.3
2019-Dec-11 14:56 002 2 gusting 5 3.3
2019-Dec-11 14:49 004 2 gusting 5 3.9
2019-Dec-11 14:42 033 3.3
2019-Dec-11 14:35 008 2 gusting 4 3.3
2019-Dec-11 14:28 011 3 gusting 4 3.3
2019-Dec-11 14:21 010 2 gusting 4 3.3
2019-Dec-11 14:14 3.3
2019-Dec-11 14:07 010 2 gusting 4 3.3
2019-Dec-11 14:00 019 2 gusting 6 3.3
2019-Dec-11 13:53 011 3 gusting 6 3.3
2019-Dec-11 13:46 006 3 gusting 5 3.3
2019-Dec-11 13:39 014 2 gusting 5 3.3
2019-Dec-11 13:32 356 2 gusting 6 3.3
2019-Dec-11 13:25 350 2 gusting 6 3.3
2019-Dec-11 13:18 357 2 gusting 6 3.3
2019-Dec-11 13:11 003 2 gusting 4 3.3
2019-Dec-11 13:04 357 1 gusting 5 3.3